Siros, Greece
Current Conditions -  °F | °C
As of 4:50 PM on Monday 24 Nov 2014 (Local Time) from LGMK Reporting Station
Broken Clouds Broken Clouds  
Wind Chill: 55°   Ceiling: 2500
Heat Index: 55°   Visibility: 6mi
Dew Point: 45°   Wind: 18mph
Humidity: 67%   Direction: 350°N
Pressure: 30.12"   Gusts: NA
Location:  37.45°N, 24.93°E
Report Text: LGMK 241350Z 35016KT 9999 FEW018 BKN025 13/07 Q1020
Loading
Personal Weather Stations






























Interactive Weather Map New forecast layout! Learn more

10-Day Weather Forecast

Advertisements
Track Severe Weather on mobile